STARLINK-1357, 45565

Orbit data source: Space-Track

STARLINK-1357, 45565 is a payload satellite owned by SpaceX/Seattle (US) in LEO that was launched on Wed, 22 Apr 2020 UTC via an FALCON 9 launch vehicle from the Air Force Eastern Test Range (AFETR). Payload-class satellites include a variety of spacecraft equipped with specific instruments for various scientific and technological missions. These include communications satellites like Starlink; space stations such as the ISS; scientific satellites like the Hubble; Earth observation satellites from companies like Planet Labs, Umbra, and HawkEye 360; GPS; miniature CubeSats for education and research; and military/defense satellites.

Loading next visibility...
Identifier
45565, 2020-025AL
Orbit
LEO
Last TLE update
11 hours ago
Origin
Manufacturer
SpaceX/Seattle
Mission
Operational Commercial Communications
Bus & Motor
STARLINK, Unknown motor
Mass
260 kg wet, ~248 kg dry
Launch date (UTC)
2020-04-22 (5 years ago)
Launch vehicle
FALCON 9
Launch site
Air Force Eastern Test Range (AFETR)
Object type
Payload
Rocket body
Debris
Shape & HBR
Box + 1 Pan, 8.86 m
Radar Cross Section
13.562 m², Large (>1 m²)

Expand to show TLE details & history

TLE from 11 hours ago
0 STARLINK-1357
1 45565U 20025AL  25188.91668981 -.00024450  00000-0 -11467-2 0  9994
2 45565  53.0563 104.7236 0001637  98.4981 297.4112 15.18884756287891
Epoch: 2025-07-07T22:00Z
TLE epoch observation values (Epoch: 2025-07-07T22:00:01.999Z)
Latitude
28.02466°
Longitude
-127.94666°
Altitude
510.073 km
Speed
7.613 km/s
True Right ascension
08h 32m 43s
True Declination
27° 52' 38"
Sunlit
Object was in daylight at epoch
Visualization orbit readout
Latitude
-35.56999°
Longitude
174.22362°
Altitude
521.559 km
Speed
7.602 km/s
Apparent Right ascension
06h 35m 05s
Apparent Declination
-41° 42' 55"
Sunlit
Object is in daylight
Visualization observer readout
Local Sidereal Time
20:47:24
Azimuth
104.983° ESE
Elevation
-65.053°
Doppler factor
1
Orbital elements
Apogee altitude
510.609 km
Perigee altitude
508.354 km
Semi-major axis
6,887.619 km
Eccentricity
0.00016
Inclination
53.0563°
RAAN
104.7236°
Arg. of periapsis
98.4981°
True anomaly
Unknown
Mean anomaly
297.4112°
Eccentric anomaly
Unknown
Mean motion
3.79699 °/min
Orbital period
94.81 mins
BSTAR
-0.0011467
Loading maneuver chart data...
Loading SW <> Apogee altitude chart data...
Loading historical data...
Loading historical data...
Loading historical data...
Loading historical data...
Loading historical data...
Loading historical data...
Loading historical data...

STARLINK-1357 Visibility forecast

Observer location: undefined°, undefined°

Span
Click to sort rows by Start time (UTC) header in descending order
Start Az.
Max El. time (UTC)
Max El. Az.
Max El.
End time (UTC)
End Az.
5 mins2025-07-08 20:06:39.031Z177.666° S2025-07-08 20:08:39.031Z139.966° SSE22.407°2025-07-08 20:11:39.031Z79.777° E
5 mins2025-07-08 21:45:39.031Z268.348° W2025-07-08 21:47:39.031Z332.21° NNW34.28°2025-07-08 21:50:39.031Z36.345° NE
5 mins2025-07-09 02:44:39.031Z339.907° N2025-07-09 02:46:39.031Z25.265° NE25.879°2025-07-09 02:49:39.031Z86.274° E
5 mins2025-07-09 04:23:39.031Z283.567° WNW2025-07-09 04:25:39.031Z220.183° SW34.275°2025-07-09 04:28:39.031Z156.87° SSE
|